Cancun, Mexico

6:47 PM on July 26, 2017 (GMT +0000)
Cancun International

Weather History for MMUN - December, 2012

Change the Weather History Date:

Sunday, December 16, 2012

  Actual Average Record
Temperature  
Mean Temperature 71 °F -  
Max Temperature 80 °F 81 °F 87 °F (2000)
Min Temperature 62 °F 64 °F 55 °F (1997)
Cooling Degree Days 6    
Growing Degree Days 21 (Base 50)    
Moisture  
Dew Point 65 °F    
Average Humidity 77    
Maximum Humidity 94    
Minimum Humidity 58    
Precipitation  
Precipitation 0.00 in - - ()
Sea Level Pressure  
Sea Level Pressure 29.94 in    
Wind  
Wind Speed 5 mph ()    
Max Wind Speed 14 mph    
Max Gust Speed -    
Visibility 7.0 miles    
Events      
Averages and records for this station are not official NWS values.
T = Trace of Precipitation, MM = Missing Value Source: Averaged Metar Reports

Daily Weather History Graph

Daily Weather History Graph

Search for Another Location

Airport or City:

Trip Planner

Search our weather history database for the weather conditions in past years. The results will help you decide how hot, cold, wet, or windy it might be!

Date:

Astronomy

Dec. 16, 2012 Rise Set
Actual Time 6:17 AM CST 5:09 PM CST
Civil Twilight 5:53 AM CST 5:33 PM CST
Nautical Twilight 5:25 AM CST 6:01 PM CST
Astronomical Twilight 4:58 AM CST 6:28 PM CST
Moon 9:11 AM CST (12/16) 8:58 PM CST (12/16)
Length of Visible Light 11h 40m
Length of Day
10h 51m
Waxing Crescent, 16% of the Moon is Illuminated
Dec 16
Waxing Crescent
Dec 19
First Quarter
Dec 28
Full
Jan 4
Last Quarter
Jan 11
New

Hourly Weather History & Observations

Time (CST) Temp. Heat Index Dew Point Humidity Pressure Visibility Wind Dir Wind Speed Gust Speed Precip Events Conditions
12:50 AM 73.4 °F - 64.4 °F 73% 29.97 in 7.0 mi ESE 6.9 mph - N/A   Scattered Clouds
1:46 AM 71.6 °F - 64.4 °F 78% 29.95 in 7.0 mi ESE 5.8 mph - N/A   Scattered Clouds
2:45 AM 71.6 °F - 62.6 °F 73% 29.95 in 7.0 mi East 5.8 mph - N/A   Scattered Clouds
3:40 AM 66.2 °F - 62.6 °F 88% 29.95 in 7.0 mi East 2.3 mph - N/A   Scattered Clouds
4:40 AM 64.4 °F - 62.6 °F 94% 29.95 in 7.0 mi ESE 2.3 mph - N/A   Scattered Clouds
5:45 AM 64.4 °F - 62.6 °F 94% 29.96 in 7.0 mi Calm Calm - N/A   Clear
6:46 AM 62.6 °F - 60.8 °F 94% 29.98 in 7.0 mi NNW 2.3 mph - N/A   Clear
7:44 AM 73.4 °F - 68.0 °F 83% 29.98 in 7.0 mi Calm Calm - N/A   Clear
8:47 AM 78.8 °F - 64.4 °F 61% 29.98 in 7.0 mi SE 13.8 mph - N/A   Partly Cloudy
9:41 AM 80.6 °F 82.3 °F 64.4 °F 58% 29.98 in 7.0 mi SE 12.7 mph - N/A   Scattered Clouds
10:44 AM 80.6 °F 82.3 °F 64.4 °F 58% 29.96 in 7.0 mi SE 13.8 mph - N/A   Mostly Cloudy
11:49 AM 80.6 °F 82.3 °F 64.4 °F 58% 29.96 in 7.0 mi ESE 12.7 mph - N/A   Mostly Cloudy
12:40 PM 80.6 °F 82.3 °F 64.4 °F 58% 29.93 in 7.0 mi SE 11.5 mph - N/A   Scattered Clouds
1:41 PM 80.6 °F 82.7 °F 66.2 °F 61% 29.91 in 7.0 mi ESE 6.9 mph - N/A   Mostly Cloudy
2:45 PM 80.6 °F 82.3 °F 64.4 °F 58% 29.91 in 7.0 mi SE 8.1 mph - N/A   Scattered Clouds
3:42 PM 78.8 °F - 64.4 °F 61% 29.90 in 7.0 mi SE 10.4 mph - N/A   Partly Cloudy
4:45 PM 77.0 °F - 66.2 °F 69% 29.90 in 7.0 mi ESE 3.5 mph - N/A   Clear
5:43 PM 73.4 °F - 66.2 °F 78% 29.90 in 7.0 mi SE 3.5 mph - N/A   Clear
6:44 PM 71.6 °F - 66.2 °F 83% 29.91 in 7.0 mi ESE 3.5 mph - N/A   Clear
7:43 PM 69.8 °F - 66.2 °F 88% 29.93 in 7.0 mi ESE 2.3 mph - N/A   Clear
8:42 PM 68.0 °F - 66.2 °F 94% 29.94 in 7.0 mi SE 2.3 mph - N/A   Clear
9:48 PM 68.0 °F - 66.2 °F 94% 29.95 in 7.0 mi SE 5.8 mph - N/A   Clear
10:47 PM 68.0 °F - 66.2 °F 94% 29.94 in 7.0 mi ESE 5.8 mph - N/A   Clear
11:46 PM 68.0 °F - 66.2 °F 94% 29.92 in 7.0 mi SE 5.8 mph - N/A   Clear